| time (UTC) | temp F | wind direction | speed MPH | gust MPH | rain 1hr in | rain 24hr in | rain mn in | humidity % | barometer mb |
| 20260902161600 | 68 | 0 | 0.0 | 0.0 | 0.00 | 0.00 | 0.00 | 100 | 1021.1 |
| 20260902160114 | 68 | 0 | 0.0 | 6.0 | 0.00 | 0.00 | 0.00 | 100 | 1020.8 |
| 20260902154607 | 68 | 0 | 0.0 | 8.0 | 0.00 | 0.00 | 0.00 | 100 | 1020.6 |
| 20260902153100 | 69 | 0 | 0.0 | 6.0 | 0.00 | 0.00 | 0.00 | 100 | 1020.6 |
| 20260902151604 | 68 | 0 | 0.0 | 3.0 | 0.00 | 0.00 | 0.00 | 100 | 1020.7 |
| 20260902144617 | 68 | 0 | 0.0 | 0.0 | 0.00 | 0.00 | 0.00 | 100 | 1020.7 |
| 20260902143103 | 68 | 82 | 2.0 | 8.0 | 0.00 | 0.00 | 0.00 | 100 | 1020.8 |
| 20260902141601 | 68 | 84 | 2.0 | 7.0 | 0.00 | 0.00 | 0.00 | 100 | 1020.6 |
| 20260902134559 | 68 | 0 | 2.0 | 8.0 | 0.00 | 0.00 | 0.00 | 100 | 1020.5 |
| 20260902133109 | 68 | 0 | 0.0 | 6.0 | 0.00 | 0.00 | 0.00 | 100 | 1020.5 |
| 20260902131601 | 68 | 0 | 2.0 | 7.0 | 0.00 | 0.00 | 0.00 | 100 | 1020.3 |
| 20260902130059 | 68 | 0 | 0.0 | 6.0 | 0.00 | 0.00 | 0.00 | 100 | 1020.0 |
| 20260902124555 | 68 | 102 | 0.0 | 7.0 | 0.00 | 0.00 | 0.00 | 100 | 1020.1 |
| 20260902123111 | 67 | 96 | 0.0 | 6.0 | 0.00 | 0.00 | 0.00 | 100 | 1019.9 |
| 20260902121603 | 67 | 0 | 0.0 | 0.0 | 0.00 | 0.00 | 0.00 | 100 | 1019.9 |
| 20260902120123 | 67 | 83 | 0.0 | 7.0 | 0.00 | 0.00 | 0.00 | 100 | 1019.9 |
| 20260902114555 | 67 | 0 | 0.0 | 6.0 | 0.00 | 0.00 | 0.00 | 100 | 1019.6 |
| 20260902113104 | 67 | 78 | 0.0 | 6.0 | 0.00 | 0.00 | 0.00 | 100 | 1019.6 |
| 20260902111556 | 67 | 0 | 0.0 | 0.0 | 0.00 | 0.00 | 0.00 | 100 | 1019.6 |
| 20260902110104 | 67 | 0 | 0.0 | 4.0 | 0.00 | 0.00 | 0.00 | 100 | 1019.9 |
| 20260902104609 | 67 | 101 | 0.0 | 7.0 | 0.00 | 0.00 | 0.00 | 100 | 1019.7 |
| 20260902103100 | 67 | 0 | 3.0 | 9.0 | 0.00 | 0.00 | 0.00 | 100 | 1019.5 |
| 20260902101555 | 68 | 0 | 0.0 | 4.0 | 0.00 | 0.00 | 0.00 | 99 | 1019.3 |
| 20260902100056 | 68 | 89 | 1.0 | 5.0 | 0.00 | 0.00 | 0.00 | 99 | 1019.3 |
| 20260902094600 | 68 | 0 | 0.0 | 0.0 | 0.00 | 0.00 | 0.00 | 99 | 1019.3 |
| 20260902093105 | 68 | 0 | 0.0 | 3.0 | 0.00 | 0.00 | 0.00 | 99 | 1019.4 |
| 20260902091602 | 68 | 0 | 0.0 | 0.0 | 0.00 | 0.00 | 0.00 | 99 | 1019.1 |
| 20260902090101 | 68 | 84 | 0.0 | 7.0 | 0.00 | 0.00 | 0.00 | 99 | 1018.8 |
| 20260902084606 | 68 | 94 | 1.0 | 8.0 | 0.00 | 0.00 | 0.00 | 99 | 1018.7 |
| 20260902083108 | 68 | 0 | 1.0 | 8.0 | 0.00 | 0.00 | 0.00 | 99 | 1018.5 |
| 20260902081558 | 69 | 0 | 1.0 | 4.0 | 0.00 | 0.00 | 0.00 | 99 | 1018.3 |
| 20260902080112 | 69 | 0 | 0.0 | 8.0 | 0.00 | 0.00 | 0.00 | 99 | 1018.3 |
| 20260902074555 | 69 | 0 | 1.0 | 9.0 | 0.00 | 0.00 | 0.00 | 99 | 1018.1 |
| 20260902073052 | 69 | 0 | 1.0 | 4.0 | 0.00 | 0.00 | 0.00 | 99 | 1018.1 |
| 20260902071603 | 70 | 71 | 0.0 | 6.0 | 0.00 | 0.00 | 0.00 | 99 | 1017.9 |
| 20260902070058 | 70 | 0 | 1.0 | 5.0 | 0.00 | 0.00 | 0.00 | 99 | 1018.1 |
| 20260902064603 | 70 | 108 | 1.0 | 8.0 | 0.00 | 0.00 | 0.00 | 98 | 1018.0 |
| 20260902063105 | 71 | 79 | 0.0 | 5.0 | 0.00 | 0.00 | 0.00 | 99 | 1017.9 |
| 20260902061613 | 71 | 0 | 0.0 | 6.0 | 0.00 | 0.00 | 0.00 | 99 | 1017.8 |
| 20260902060118 | 71 | 0 | 0.0 | 5.0 | 0.00 | 0.00 | 0.00 | 98 | 1017.8 |
| 20260902054612 | 71 | 88 | 0.0 | 6.0 | 0.00 | 0.00 | 0.00 | 98 | 1017.8 |
| 20260902053104 | 71 | 107 | 0.0 | 6.0 | 0.00 | 0.00 | 0.00 | 98 | 1017.9 |
| 20260902051557 | 71 | 0 | 1.0 | 4.0 | 0.00 | 0.00 | 0.00 | 98 | 1018.0 |
| 20260902044601 | 72 | 0 | 0.0 | 0.0 | 0.00 | 0.00 | 0.00 | 98 | 1018.1 |
| 20260902043104 | 72 | 0 | 0.0 | 0.0 | 0.00 | 0.00 | 0.00 | 98 | 1018.1 |
| 20260902041555 | 72 | 0 | 0.0 | 0.0 | 0.00 | 0.00 | 0.00 | 98 | 1018.0 |
| 20260902040054 | 72 | 0 | 0.0 | 0.0 | 0.00 | 0.00 | 0.00 | 98 | 1017.8 |
| 20260902034602 | 72 | 0 | 0.0 | 0.0 | 0.00 | 0.00 | 0.00 | 98 | 1017.5 |
| 20260902033106 | 72 | 0 | 0.0 | 0.0 | 0.00 | 0.00 | 0.00 | 98 | 1017.2 |
| 20260902031558 | 72 | 0 | 0.0 | 0.0 | 0.00 | 0.00 | 0.00 | 97 | 1017.3 |
| 20260902024559 | 72 | 0 | 0.0 | 0.0 | 0.00 | 0.00 | 0.00 | 97 | 1017.0 |
| 20260902023055 | 71 | 0 | 0.0 | 0.0 | 0.00 | 0.00 | 0.00 | 97 | 1016.9 |
| 20260902021559 | 71 | 0 | 0.0 | 0.0 | 0.00 | 0.00 | 0.00 | 96 | 1016.5 |
| 20260902020100 | 71 | 0 | 0.0 | 0.0 | 0.00 | 0.00 | 0.00 | 96 | 1016.8 |
| 20260902014555 | 71 | 0 | 0.0 | 6.0 | 0.00 | 0.00 | 0.00 | 95 | 1016.3 |
| 20260902013104 | 71 | 0 | 0.0 | 0.0 | 0.00 | 0.00 | 0.00 | 94 | 1015.3 |
| 20260902011601 | 71 | 0 | 0.0 | 0.0 | 0.00 | 0.00 | 0.00 | 93 | 1014.6 |
| 20260902010105 | 71 | 0 | 0.0 | 0.0 | 0.00 | 0.00 | 0.00 | 92 | 1014.7 |
| 20260902004556 | 72 | 0 | 0.0 | 0.0 | 0.00 | 0.00 | 0.00 | 90 | 1014.9 |
| 20260902003103 | 73 | 0 | 0.0 | 8.0 | 0.00 | 0.00 | 0.00 | 87 | 1014.9 |
| 20260902001557 | 76 | 276 | 1.0 | 9.0 | 0.00 | 0.00 | 0.00 | 84 | 1015.4 |
| 20260902000056 | 80 | 0 | 0.0 | 0.0 | 0.00 | 0.00 | 0.00 | 85 | 1014.2 |
| 20260901234611 | 81 | 0 | 0.0 | 0.0 | 0.00 | 0.00 | 0.00 | 82 | 1013.8 |
| 20260901233111 | 81 | 0 | 0.0 | 0.0 | 0.00 | 0.00 | 0.00 | 80 | 1014.2 |
| 20260901231606 | 82 | 0 | 0.0 | 0.0 | 0.00 | 0.00 | 0.00 | 79 | 1013.8 |
| 20260901230106 | 83 | 0 | 0.0 | 0.0 | 0.00 | 0.00 | 0.00 | 76 | 1013.9 |
| 20260901224600 | 84 | 0 | 0.0 | 0.0 | 0.00 | 0.00 | 0.00 | 73 | 1013.8 |
| 20260901223055 | 85 | 0 | 0.0 | 3.0 | 0.00 | 0.00 | 0.00 | 71 | 1013.8 |
| 20260901221617 | 86 | 0 | 0.0 | 4.0 | 0.00 | 0.00 | 0.00 | 69 | 1013.6 |
| 20260901220125 | 87 | 0 | 0.0 | 3.0 | 0.00 | 0.00 | 0.00 | 67 | 1013.7 |
| 20260901214555 | 87 | 0 | 0.0 | 6.0 | 0.00 | 0.00 | 0.00 | 66 | 1013.8 |
| 20260901213110 | 88 | 0 | 0.0 | 6.0 | 0.00 | 0.00 | 0.00 | 66 | 1014.2 |
| 20260901211558 | 87 | 201 | 0.0 | 7.0 | 0.00 | 0.00 | 0.00 | 66 | 1014.0 |
| 20260901210106 | 87 | 0 | 0.0 | 8.0 | 0.00 | 0.00 | 0.00 | 65 | 1014.0 |
| 20260901204601 | 88 | 0 | 2.0 | 9.0 | 0.00 | 0.00 | 0.00 | 63 | 1014.1 |
| 20260901203106 | 88 | 0 | 0.0 | 6.0 | 0.00 | 0.00 | 0.00 | 64 | 1014.0 |
| 20260901201557 | 88 | 219 | 0.0 | 7.0 | 0.00 | 0.00 | 0.00 | 63 | 1014.2 |
| 20260901200056 | 88 | 0 | 1.0 | 9.0 | 0.00 | 0.00 | 0.00 | 65 | 1014.2 |
| 20260901194552 | 87 | 0 | 0.0 | 7.0 | 0.00 | 0.00 | 0.00 | 68 | 1014.4 |
| 20260901193104 | 86 | 0 | 0.0 | 6.0 | 0.00 | 0.00 | 0.00 | 69 | 1014.5 |
| 20260901191614 | 86 | 0 | 0.0 | 8.0 | 0.00 | 0.00 | 0.00 | 67 | 1014.5 |
| 20260901184612 | 87 | 181 | 1.0 | 7.0 | 0.00 | 0.00 | 0.00 | 66 | 1014.9 |
| 20260901183107 | 86 | 202 | 0.0 | 5.0 | 0.00 | 0.00 | 0.00 | 68 | 1015.0 |
| 20260901181601 | 85 | 0 | 2.0 | 7.0 | 0.00 | 0.00 | 0.00 | 69 | 1015.0 |
| 20260901174603 | 85 | 0 | 0.0 | 4.0 | 0.00 | 0.00 | 0.00 | 69 | 1015.3 |
| 20260901173103 | 84 | 0 | 1.0 | 7.0 | 0.00 | 0.00 | 0.00 | 73 | 1015.2 |
| 20260901171610 | 83 | 199 | 0.0 | 5.0 | 0.00 | 0.00 | 0.00 | 75 | 1015.5 |
| 20260901170104 | 82 | 0 | 1.0 | 8.0 | 0.00 | 0.00 | 0.00 | 77 | 1015.5 |
| 20260901164556 | 80 | 0 | 0.0 | 5.0 | 0.00 | 0.00 | 0.00 | 80 | 1015.8 |
| 20260901163106 | 79 | 0 | 0.0 | 5.0 | 0.00 | 0.00 | 0.00 | 83 | 1016.2 |
| 20260901161557 | 78 | 0 | 0.0 | 1.0 | 0.00 | 0.00 | 0.00 | 83 | 1016.3 |
| 20260901160106 | 78 | 0 | 0.0 | 4.0 | 0.00 | 0.00 | 0.00 | 84 | 1016.4 |
| 20260901154557 | 77 | 0 | 0.0 | 6.0 | 0.00 | 0.00 | 0.00 | 86 | 1016.4 |
| 20260901153105 | 77 | 0 | 0.0 | 0.0 | 0.00 | 0.00 | 0.00 | 87 | 1016.4 |
| 20260901151554 | 77 | 0 | 0.0 | 0.0 | 0.00 | 0.00 | 0.00 | 86 | 1016.5 |
| 20260901144604 | 77 | 0 | 0.0 | 1.0 | 0.00 | 0.00 | 0.00 | 87 | 1016.4 |
| 20260901143103 | 76 | 0 | 2.0 | 6.0 | 0.00 | 0.00 | 0.00 | 90 | 1016.2 |
| 20260901141603 | 76 | 0 | 0.0 | 4.0 | 0.00 | 0.00 | 0.00 | 93 | 1016.4 |
| 20260901140058 | 75 | 0 | 0.0 | 5.0 | 0.00 | 0.00 | 0.00 | 96 | 1016.4 |
| 20260901134606 | 74 | 0 | 0.0 | 5.0 | 0.00 | 0.00 | 0.00 | 97 | 1016.3 |
| 20260901133107 | 74 | 0 | 0.0 | 6.0 | 0.00 | 0.00 | 0.00 | 98 | 1016.4 |
| 20260901131604 | 73 | 0 | 0.0 | 3.0 | 0.00 | 0.00 | 0.00 | 98 | 1016.6 |
| 20260901130059 | 73 | 0 | 0.0 | 2.0 | 0.00 | 0.00 | 0.00 | 98 | 1016.5 |
| 20260901124602 | 73 | 0 | 0.0 | 2.0 | 0.00 | 0.00 | 0.00 | 98 | 1016.7 |
| 20260901123107 | 72 | 0 | 0.0 | 0.0 | 0.00 | 0.00 | 0.00 | 98 | 1016.5 |
| 20260901121558 | 72 | 0 | 0.0 | 0.0 | 0.00 | 0.00 | 0.00 | 98 | 1016.5 |
| 20260901120057 | 71 | 0 | 0.0 | 0.0 | 0.00 | 0.00 | 0.00 | 98 | 1016.6 |
| 20260901114600 | 71 | 0 | 0.0 | 0.0 | 0.00 | 0.00 | 0.00 | 98 | 1016.5 |
| 20260901113115 | 70 | 0 | 0.0 | 0.0 | 0.00 | 0.00 | 0.00 | 98 | 1016.8 |
| 20260901111557 | 70 | 0 | 0.0 | 0.0 | 0.00 | 0.00 | 0.00 | 98 | 1016.7 |
| 20260901110107 | 70 | 0 | 0.0 | 0.0 | 0.00 | 0.00 | 0.00 | 98 | 1016.6 |
| 20260901104606 | 70 | 0 | 0.0 | 0.0 | 0.00 | 0.00 | 0.00 | 98 | 1016.6 |
| 20260901103059 | 69 | 0 | 0.0 | 0.0 | 0.00 | 0.00 | 0.00 | 98 | 1016.6 |
| 20260901101603 | 69 | 0 | 0.0 | 0.0 | 0.00 | 0.00 | 0.00 | 98 | 1016.7 |
| 20260901094600 | 70 | 0 | 0.0 | 0.0 | 0.00 | 0.00 | 0.00 | 98 | 1016.5 |
| 20260901093104 | 70 | 0 | 0.0 | 0.0 | 0.00 | 0.00 | 0.00 | 98 | 1016.7 |
| 20260901091614 | 70 | 0 | 0.0 | 0.0 | 0.00 | 0.00 | 0.00 | 98 | 1016.7 |
| 20260901090057 | 70 | 0 | 0.0 | 0.0 | 0.00 | 0.00 | 0.00 | 98 | 1016.7 |
| 20260901084559 | 70 | 0 | 0.0 | 0.0 | 0.00 | 0.00 | 0.00 | 98 | 1016.8 |
| 20260901083058 | 69 | 0 | 0.0 | 0.0 | 0.00 | 0.00 | 0.00 | 98 | 1017.1 |
| 20260901081556 | 70 | 0 | 0.0 | 0.0 | 0.00 | 0.00 | 0.00 | 98 | 1017.1 |
| 20260901080104 | 70 | 0 | 0.0 | 0.0 | 0.00 | 0.00 | 0.00 | 98 | 1016.9 |
| 20260901074559 | 70 | 0 | 0.0 | 0.0 | 0.00 | 0.00 | 0.00 | 98 | 1017.0 |
| 20260901073058 | 70 | 0 | 0.0 | 0.0 | 0.00 | 0.00 | 0.00 | 98 | 1016.9 |
| 20260901071605 | 70 | 0 | 0.0 | 0.0 | 0.00 | 0.00 | 0.00 | 98 | 1017.0 |
| 20260901070109 | 70 | 0 | 0.0 | 0.0 | 0.00 | 0.00 | 0.00 | 98 | 1017.2 |
| 20260901064559 | 70 | 0 | 0.0 | 0.0 | 0.00 | 0.00 | 0.00 | 97 | 1017.1 |
| 20260901063108 | 70 | 0 | 0.0 | 0.0 | 0.00 | 0.00 | 0.00 | 97 | 1017.3 |
| 20260901061604 | 70 | 0 | 0.0 | 0.0 | 0.00 | 0.00 | 0.00 | 97 | 1017.5 |
| 20260901054555 | 70 | 0 | 0.0 | 0.0 | 0.00 | 0.00 | 0.00 | 97 | 1017.6 |
| 20260901053105 | 70 | 0 | 0.0 | 0.0 | 0.00 | 0.00 | 0.00 | 97 | 1017.9 |
| 20260901051611 | 70 | 0 | 0.0 | 0.0 | 0.00 | 0.00 | 0.00 | 97 | 1017.6 |
| 20260901050108 | 70 | 0 | 0.0 | 0.0 | 0.00 | 0.00 | 0.00 | 97 | 1017.9 |
| 20260901044606 | 69 | 0 | 0.0 | 0.0 | 0.00 | 0.00 | 0.00 | 97 | 1017.8 |
| 20260901043102 | 69 | 270 | 0.0 | 6.0 | 0.00 | 0.00 | 0.00 | 97 | 1017.7 |